Lancaster, CA

2:10 PM PDT on July 23, 2017 (GMT -0700)
Gen Fox

Weather History for KWJF - January, 2012

Change the Weather History Date:

Saturday, January 7, 2012

  Actual Average Record
Temperature  
Mean Temperature 48 °F 44 °F  
Max Temperature 66 °F 58 °F 80 °F (1969)
Min Temperature 29 °F 30 °F 11 °F (1950)
Degree Days  
Heating Degree Days 17    
Month to date heating degree days 121  
Since 1 July heating degree days 1472  
Cooling Degree Days 0    
Month to date cooling degree days 0  
Year to date cooling degree days 0  
Moisture  
Dew Point 24 °F    
Average Humidity 39    
Maximum Humidity 62    
Minimum Humidity 15    
Precipitation  
Precipitation 0.00 in 0.05 in 1.33 in (1993)
Month to date precipitation 0.00 0.35  
Year to date precipitation 0.00 0.35  
Since 1 July precipitation 1.35  
Snow  
Snow 0.00 in - T in (1977)
Month to date snowfall 0.0  
Since 1 July snowfall 0.0  
Snow Depth -    
Sea Level Pressure  
Sea Level Pressure 30.08 in    
Wind  
Wind Speed 11 mph (NNW)    
Max Wind Speed 26 mph    
Max Gust Speed 32 mph    
Visibility 8 miles    
Events      
T = Trace of Precipitation, MM = Missing Value Source: NWS Daily Summary

Daily Weather History Graph

Daily Weather History Graph

Search for Another Location

Airport or City:

Trip Planner

Search our weather history database for the weather conditions in past years. The results will help you decide how hot, cold, wet, or windy it might be!

Date:

Astronomy

Jan. 07, 2012 Rise Set
Actual Time 7:00 AM PST 4:57 PM PST
Civil Twilight 6:33 AM PST 5:25 PM PST
Nautical Twilight 6:01 AM PST 5:56 PM PST
Astronomical Twilight 5:31 AM PST 6:27 PM PST
Moon 3:46 PM PST (1/7) 5:35 AM PST (1/7)
Length of Visible Light 10h 52m
Length of Day
9h 56m
Waxing Gibbous, 98% of the Moon is Illuminated
Jan 7
Waxing Gibbous
Jan 8
Full
Jan 16
Last Quarter
Jan 22
New
Jan 30
First Quarter

Hourly Weather History & Observations

Time (PST) Temp. Windchill Dew Point Humidity Pressure Visibility Wind Dir Wind Speed Gust Speed Precip Events Conditions
12:56 AM 53.1 °F - 30.0 °F 41% 29.98 in 10.0 mi WNW 12.7 mph 20.7 mph N/A   Clear
1:56 AM 50.0 °F - 28.9 °F 44% 29.99 in 10.0 mi WNW 10.4 mph - N/A   Clear
2:56 AM 46.0 °F 41.4 °F 34.0 °F 63% 30.01 in 5.0 mi NW 9.2 mph - N/A   Haze
3:56 AM 48.0 °F - 34.0 °F 58% 30.00 in 6.0 mi WNW 17.3 mph - N/A   Haze
4:56 AM 46.0 °F 40.6 °F 32.0 °F 58% 30.02 in 6.0 mi West 11.5 mph - N/A   Haze
5:56 AM 45.0 °F 40.1 °F 32.0 °F 60% 30.03 in 6.0 mi West 9.2 mph - N/A   Haze
6:56 AM 44.1 °F - 30.9 °F 60% 30.03 in 7.0 mi Calm Calm - N/A   Clear
7:56 AM 48.0 °F - 35.1 °F 61% 30.05 in 4.0 mi West 18.4 mph 24.2 mph N/A   Haze
8:56 AM 51.1 °F - 36.0 °F 56% 30.07 in 4.0 mi WNW 18.4 mph 27.6 mph N/A   Haze
9:56 AM 55.0 °F - 36.0 °F 49% 30.08 in 4.0 mi West 16.1 mph - N/A   Haze
10:56 AM 59.0 °F - 34.0 °F 39% 30.08 in 5.0 mi NW 15.0 mph - N/A   Haze
11:56 AM 62.1 °F - 33.1 °F 34% 30.05 in 6.0 mi WNW 6.9 mph - N/A   Haze
12:56 PM 64.9 °F - 24.1 °F 21% 30.04 in 10.0 mi NNE 6.9 mph - N/A   Clear
1:56 PM 64.9 °F - 21.0 °F 19% 30.04 in 10.0 mi ENE 10.4 mph 20.7 mph N/A   Clear
2:56 PM 64.9 °F - 19.0 °F 17% 30.05 in 10.0 mi ENE 11.5 mph - N/A   Clear
3:56 PM 64.0 °F - 15.1 °F 15% 30.05 in 10.0 mi ENE 15.0 mph - N/A   Clear
4:56 PM 59.0 °F - 17.1 °F 20% 30.08 in 10.0 mi ENE 16.1 mph - N/A   Clear
5:56 PM 55.9 °F - 15.1 °F 20% 30.12 in 10.0 mi ENE 17.3 mph - N/A   Clear
6:56 PM 48.9 °F - 16.0 °F 27% 30.15 in 10.0 mi ESE 9.2 mph - N/A   Clear
7:56 PM 46.9 °F - 14.0 °F 27% 30.16 in 10.0 mi East 6.9 mph - N/A   Clear
8:56 PM 39.9 °F 35.8 °F 14.0 °F 35% 30.19 in 10.0 mi East 5.8 mph - N/A   Clear
9:56 PM 39.0 °F 34.0 °F 12.9 °F 34% 30.21 in 10.0 mi East 6.9 mph - N/A   Clear
10:56 PM 32.0 °F - 10.9 °F 42% 30.22 in 10.0 mi Calm Calm - N/A   Clear
11:56 PM 30.0 °F 26.5 °F 10.0 °F 43% 30.23 in 10.0 mi NNW 3.5 mph - N/A   Clear